Hourly Weather Jizzax

Today, 11 July, Saturday

Time Temperature Precipitation Wind Pressure Humidity
00:00 +28°C° 0 mm 2 mps 722 mmHg 35%
01:00 +27°C° 0 mm 1 mps 722 mmHg 36%
02:00 +26°C° 0 mm 1 mps 721 mmHg 37%
03:00 +26°C° 0 mm 1 mps 721 mmHg 38%
04:00 +25°C° 0 mm 1 mps 721 mmHg 40%
05:00 +25°C° 0 mm 1 mps 721 mmHg 41%
06:00 +27°C° 0 mm 1 mps 721 mmHg 37%
07:00 +29°C° 0 mm 2 mps 722 mmHg 33%
08:00 +31°C° 0 mm 2 mps 722 mmHg 29%
09:00 +34°C° 0 mm 3 mps 722 mmHg 27%
10:00 +35°C° 0 mm 4 mps 722 mmHg 25%
11:00 +37°C° 0 mm 5 mps 722 mmHg 23%
12:00 +37°C° 0 mm 5 mps 722 mmHg 22%
13:00 +39°C° 0 mm 5 mps 722 mmHg 20%
14:00 +40°C° 0 mm 5 mps 722 mmHg 19%
15:00 +36°C° 0.3 mm 6 mps 721 mmHg 27%
16:00 +33°C° 0.3 mm 6 mps 721 mmHg 35%
17:00 +29°C° 0.3 mm 7 mps 721 mmHg 43%
18:00 +29°C° 0.2 mm 6 mps 721 mmHg 44%
19:00 +28°C° 0.2 mm 5 mps 721 mmHg 46%
20:00 +27°C° 0.2 mm 4 mps 721 mmHg 47%
21:00 +27°C° 0 mm 4 mps 721 mmHg 46%
22:00 +27°C° 0 mm 3 mps 721 mmHg 44%
23:00 +27°C° 0 mm 3 mps 721 mmHg 43%

Tomorrow, 12 July, Sunday

Time Temperature Precipitation Wind Pressure Humidity
00:00 +27°C° 0 mm 3 mps 721 mmHg 43%
01:00 +27°C° 0 mm 2 mps 720 mmHg 42%
02:00 +27°C° 0 mm 1 mps 720 mmHg 42%
03:00 +27°C° 0 mm 2 mps 720 mmHg 42%
04:00 +27°C° 0 mm 2 mps 720 mmHg 42%
05:00 +27°C° 0 mm 2 mps 721 mmHg 41%
06:00 +28°C° 0 mm 2 mps 721 mmHg 38%
07:00 +30°C° 0 mm 2 mps 721 mmHg 34%
08:00 +31°C° 0 mm 2 mps 721 mmHg 31%
09:00 +32°C° 0 mm 2 mps 721 mmHg 28%
10:00 +35°C° 0 mm 2 mps 721 mmHg 25%
11:00 +36°C° 0 mm 2 mps 721 mmHg 22%
12:00 +37°C° 0 mm 2 mps 721 mmHg 20%
13:00 +38°C° 0 mm 3 mps 721 mmHg 18%
14:00 +40°C° 0 mm 3 mps 721 mmHg 16%
15:00 +40°C° 0 mm 3 mps 721 mmHg 16%
16:00 +39°C° 0 mm 3 mps 721 mmHg 16%
17:00 +39°C° 0 mm 3 mps 721 mmHg 16%
18:00 +37°C° 0 mm 3 mps 720 mmHg 21%
19:00 +35°C° 0 mm 4 mps 720 mmHg 26%
20:00 +33°C° 0 mm 4 mps 720 mmHg 31%
21:00 +32°C° 0 mm 4 mps 720 mmHg 32%
22:00 +30°C° 0 mm 5 mps 720 mmHg 33%
23:00 +29°C° 0 mm 5 mps 720 mmHg 34%

Day after tomorrow, 13 July, Monday

Time Temperature Precipitation Wind Pressure Humidity
00:00 +29°C° 0 mm 4 mps 720 mmHg 34%
01:00 +28°C° 0 mm 3 mps 719 mmHg 34%
02:00 +28°C° 0 mm 3 mps 719 mmHg 35%
03:00 +28°C° 0 mm 2 mps 719 mmHg 35%
04:00 +27°C° 0 mm 2 mps 719 mmHg 35%
05:00 +27°C° 0 mm 1 mps 719 mmHg 35%
06:00 +29°C° 0 mm 1 mps 719 mmHg 32%
07:00 +30°C° 0 mm 1 mps 719 mmHg 28%
08:00 +32°C° 0 mm 1 mps 720 mmHg 24%
09:00 +34°C° 0 mm 1 mps 720 mmHg 22%
10:00 +37°C° 0 mm 2 mps 720 mmHg 20%
11:00 +38°C° 0 mm 2 mps 720 mmHg 18%
12:00 +39°C° 0 mm 3 mps 720 mmHg 17%
13:00 +40°C° 0 mm 3 mps 719 mmHg 15%
14:00 +42°C° 0 mm 4 mps 719 mmHg 14%
15:00 +42°C° 0 mm 4 mps 719 mmHg 15%
16:00 +41°C° 0 mm 4 mps 719 mmHg 15%
17:00 +41°C° 0 mm 4 mps 719 mmHg 16%
18:00 +38°C° 0 mm 4 mps 719 mmHg 19%
19:00 +36°C° 0 mm 3 mps 719 mmHg 21%
20:00 +35°C° 0 mm 3 mps 719 mmHg 24%
21:00 +34°C° 0 mm 2 mps 719 mmHg 25%
22:00 +32°C° 0 mm 2 mps 719 mmHg 26%
23:00 +31°C° 0 mm 2 mps 719 mmHg 26%

14 July, Tuesday

Time Temperature Precipitation Wind Pressure Humidity
00:00 +31°C° 0 mm 2 mps 719 mmHg 27%
01:00 +30°C° 0 mm 1 mps 719 mmHg 28%
02:00 +29°C° 0 mm 1 mps 719 mmHg 29%
03:00 +29°C° 0 mm 1 mps 719 mmHg 30%
04:00 +28°C° 0 mm 1 mps 719 mmHg 32%
05:00 +27°C° 0 mm 1 mps 719 mmHg 33%
06:00 +29°C° 0 mm 1 mps 720 mmHg 31%
07:00 +31°C° 0 mm 2 mps 720 mmHg 28%
08:00 +34°C° 0 mm 2 mps 721 mmHg 26%
09:00 +36°C° 0 mm 2 mps 721 mmHg 23%
10:00 +38°C° 0 mm 3 mps 721 mmHg 21%
11:00 +40°C° 0 mm 3 mps 721 mmHg 19%
12:00 +42°C° 0 mm 3 mps 721 mmHg 17%
13:00 +43°C° 0 mm 3 mps 720 mmHg 15%
14:00 +44°C° 0 mm 3 mps 720 mmHg 14%
15:00 +44°C° 0 mm 4 mps 720 mmHg 13%
16:00 +44°C° 0 mm 4 mps 720 mmHg 13%
17:00 +44°C° 0 mm 4 mps 720 mmHg 13%
18:00 +42°C° 0.1 mm 4 mps 720 mmHg 16%
19:00 +38°C° 0.1 mm 3 mps 719 mmHg 19%
20:00 +36°C° 0.1 mm 2 mps 719 mmHg 21%
21:00 +35°C° 0 mm 2 mps 720 mmHg 23%
22:00 +33°C° 0 mm 1 mps 720 mmHg 25%
23:00 +31°C° 0 mm 1 mps 720 mmHg 27%

15 July, Wednesday

Time Temperature Precipitation Wind Pressure Humidity
00:00 +31°C° 0 mm 1 mps 720 mmHg 28%
01:00 +31°C° 0 mm 1 mps 720 mmHg 28%
02:00 +31°C° 0 mm 2 mps 720 mmHg 28%
03:00 +30°C° 0 mm 2 mps 720 mmHg 28%
04:00 +29°C° 0 mm 2 mps 720 mmHg 29%
05:00 +28°C° 0 mm 2 mps 720 mmHg 30%
06:00 +30°C° 0 mm 2 mps 720 mmHg 26%
07:00 +31°C° 0 mm 3 mps 720 mmHg 23%
08:00 +34°C° 0 mm 3 mps 721 mmHg 20%
09:00 +36°C° 0 mm 3 mps 721 mmHg 18%
10:00 +38°C° 0 mm 3 mps 721 mmHg 16%
11:00 +41°C° 0 mm 4 mps 721 mmHg 14%
12:00 +42°C° 0 mm 4 mps 721 mmHg 13%
13:00 +43°C° 0 mm 4 mps 720 mmHg 12%
14:00 +44°C° 0 mm 4 mps 720 mmHg 11%
15:00 +44°C° 0 mm 4 mps 720 mmHg 11%
16:00 +45°C° 0 mm 4 mps 720 mmHg 11%
17:00 +45°C° 0 mm 4 mps 719 mmHg 11%
18:00 +42°C° 0 mm 3 mps 719 mmHg 13%
19:00 +39°C° 0 mm 3 mps 719 mmHg 15%
20:00 +37°C° 0 mm 3 mps 719 mmHg 17%
21:00 +35°C° 0 mm 2 mps 719 mmHg 19%
22:00 +34°C° 0 mm 2 mps 719 mmHg 21%
23:00 +32°C° 0 mm 1 mps 719 mmHg 23%

16 July, Thursday

Time Temperature Precipitation Wind Pressure Humidity
00:00 +32°C° 0 mm 2 mps 719 mmHg 23%
01:00 +31°C° 0 mm 2 mps 719 mmHg 23%
02:00 +30°C° 0 mm 2 mps 719 mmHg 23%
03:00 +30°C° 0 mm 2 mps 719 mmHg 24%
04:00 +29°C° 0 mm 2 mps 719 mmHg 26%
05:00 +28°C° 0 mm 2 mps 718 mmHg 27%
06:00 +29°C° 0 mm 3 mps 719 mmHg 25%
07:00 +31°C° 0 mm 3 mps 719 mmHg 23%
08:00 +34°C° 0 mm 3 mps 719 mmHg 20%
09:00 +36°C° 0 mm 4 mps 719 mmHg 18%
10:00 +37°C° 0 mm 4 mps 719 mmHg 16%
11:00 +40°C° 0 mm 4 mps 719 mmHg 14%
12:00 +42°C° 0 mm 4 mps 719 mmHg 13%
13:00 +43°C° 0 mm 4 mps 719 mmHg 12%
14:00 +44°C° 0 mm 4 mps 718 mmHg 11%
15:00 +44°C° 0 mm 4 mps 718 mmHg 11%
16:00 +44°C° 0 mm 3 mps 718 mmHg 11%
17:00 +45°C° 0 mm 3 mps 718 mmHg 10%
18:00 +42°C° 0 mm 3 mps 718 mmHg 13%
19:00 +39°C° 0 mm 3 mps 718 mmHg 15%
20:00 +37°C° 0 mm 2 mps 718 mmHg 17%
21:00 +36°C° 0 mm 2 mps 718 mmHg 18%
22:00 +35°C° 0 mm 2 mps 718 mmHg 20%
23:00 +32°C° 0 mm 2 mps 718 mmHg 21%
Show more